Temp
61 61 61 61 61 61 61 62 62 63 63 63 63 63 63 63 65 70 68 78 75 72 74 80 81 80 75 71 75 69 57 51 57 60 63 72 68 76 81 78 77 78 78 82 85
61 61 61 61 61 61 61 61 62 62 63 63 63 63 63 63 70 69 79 79 76 74 80 76 75 76 69 70 71 65 55 57 66 64 61 65 69 72 76 74 72 77 81 86 85
60 61 61 61 61 61 61 61 62 62 63 63 63 63 63 63 69 73 83 79 76 76 77 76 76 70 63 65 69 63 60 66 69 72 70 69 71 73 72 65 72 74 77 81 81
60 60 60 60 61 61 61 61 62 62 62 62 62 63 63 69 57 79 83 78 77 78 78 76 72 69 62 61 70 63 68 72 71 74 70 69 72 72 72 70 78 79 81 79 77
59 60 60 60 60 60 60 61 61 61 61 62 63 63 72 67 68 87 82 83 84 79 77 75 70 65 61 66 68 63 67 73 72 70 68 72 71 70 68 77 80 81 82 80 76
58 59 59 59 59 60 60 59 59 59 60 62 63 64 71 62 83 90 87 87 86 80 80 77 68 71 65 65 63 67 67 70 69 67 68 68 70 71 74 77 77 78 76 76 77
58 58 58 59 59 59 59 59 58 59 61 63 65 74 69 71 84 85 82 79 83 84 80 80 76 74 69 68 71 70 66 67 67 66 66 72 68 69 76 74 74 75 75 77 78
58 58 58 59 59 59 60 59 59 61 63 65 66 69 67 83 83 83 82 83 87 87 83 83 79 71 65 69 70 64 59 53 67 69 70 68 57 70 76 71 71 74 75 77 77
58 57 58 58 59 59 59 59 61 63 65 65 66 67 68 84 83 88 82 83 86 86 84 90 75 69 71 60 56 57 50 52 62 66 66 63 58 69 72 71 69 70 71 74 73
58 57 57 58 58 58 58 59 64 66 76 79 81 67 74 77 84 86 85 86 81 80 78 75 67 62 59 55 47 51 51 53 54 63 62 59 59 67 70 69 69 68 69 69 71
58 57 57 58 58 58 62 69 69 67 67 69 72 74 81 85 87 82 87 84 80 74 63 68 60 55 59 61 63 60 56 54 59 65 60 54 57 62 66 64 65 67 66 68 66
58 58 58 58 58 58 58 65 72 74 66 78 78 78 84 86 77 81 85 74 71 62 66 61 54 66 70 67 64 61 55 53 59 64 59 57 56 61 65 65 66 68 70 65 62
57 57 58 59 58 59 65 73 78 73 62 74 78 77 79 80 75 77 80 73 67 64 61 55 63 72 68 64 61 55 54 52 54 58 57 56 52 58 65 61 63 60 62 62 63
57 56 57 57 64 66 69 80 78 74 53 65 72 79 81 79 73 83 82 75 68 60 63 59 68 68 63 61 60 51 61 60 59 51 42 55 39 52 54 56 59 58 58 61 59
57 57 56 55 65 67 78 74 72 71 43 70 73 84 80 75 75 75 82 75 64 65 63 59 62 62 60 61 64 56 63 57 56 48 43 48 40 47 52 51 53 55 59 57 58
57 56 55 63 61 70 74 71 72 54 45 66 74 72 69 73 75 76 74 76 73 65 63 61 68 65 62 67 65 64 57 52 48 42 35 43 43 41 45 50 53 56 58 60 59
56 56 55 71 70 74 73 67 52 46 69 65 66 69 67 67 70 71 68 61 56 50 50 58 59 64 68 59 61 57 45 31 32 30 33 46 43 43 52 55 55 55 58 60 59
55 53 61 75 71 71 67 58 46 63 62 70 69 69 63 69 67 68 63 56 61 57 48 46 47 58 65 57 51 49 45 31 29 27 38 47 38 44 55 58 58 58 57 57 54
54 62 66 73 74 69 61 48 50 59 68 66 67 60 60 66 65 63 59 57 60 58 47 44 49 61 63 62 57 52 41 49 38 37 32 38 44 51 54 55 55 54 56 54 56
58 63 66 75 73 65 56 50 59 69 70 67 55 60 53 58 57 57 57 61 59 61 57 49 40 56 61 62 58 51 54 38 34 28 28 35 37 39 45 49 51 50 50 51 53
60 61 72 74 70 59 51 54 64 72 70 63 57 56 56 54 56 54 56 60 63 61 58 50 42 47 54 49 45 47 43 43 40 37 29 29 32 49 45 48 48 49 51 50 51
54 57 73 71 58 52 52 62 63 68 69 66 63 60 55 55 53 54 55 58 63 61 50 50 42 36 45 53 56 51 46 44 32 32 34 33 31 49 50 49 51 52 52 50 50
51 55 69 69 50 50 58 66 67 65 63 62 60 61 58 53 46 55 57 62 62 58 52 49 35 26 36 44 50 47 52 48 43 36 32 25 31 50 49 48 49 47 48 48 51
54 53 57 58 55 53 54 57 59 67 65 65 61 61 55 52 52 50 54 61 62 60 59 53 40 38 30 39 44 42 48 50 42 33 34 34 38 43 44 47 48 48 47 48 50
53 51 53 48 54 53 52 57 58 58 63 62 56 57 52 45 49 47 52 54 58 59 52 47 39 42 45 48 49 48 47 46 42 42 32 37 37 41 43 43 45 47 48 50 52
49 48 50 49 54 54 50 53 57 58 57 55 53 57 53 45 46 43 47 46 47 50 46 45 38 40 41 49 49 46 45 45 45 45 42 41 39 44 46 46 47 48 49 49 50
51 51 50 48 52 50 51 55 58 58 60 61 57 52 50 52 54 53 52 51 52 46 44 43 39 36 33 45 44 33 41 43 43 45 41 33 40 43 45 46 46 47 47 47 47
MSLP
1016.87 1016.65 1016.45 1016.21 1015.99 1015.79 1015.57 1015.36 1015.28 1015.14 1014.93 1014.62 1014.21 1013.76 1013.39 1012.90 1011.87 1011.89 1011.57 1010.43 1010.24 1010.32 1010.25 1010.01 1009.50 1009.65 1009.64 1009.84 1009.53 1010.00 1011.34 1011.70 1010.76 1010.16 1009.64 1008.89 1008.62 1008.35 1008.33 1008.71 1008.52 1008.87 1009.20 1009.78 1010.27
1016.87 1016.62 1016.36 1016.16 1015.99 1015.77 1015.49 1015.29 1015.16 1014.97 1014.79 1014.50 1014.06 1013.62 1013.25 1012.91 1012.32 1011.49 1010.17 1009.85 1010.00 1010.08 1010.17 1010.22 1010.00 1009.94 1010.01 1009.76 1009.33 1009.96 1011.02 1010.63 1010.11 1009.79 1009.67 1009.34 1008.77 1008.72 1008.63 1009.03 1009.18 1009.28 1009.31 1009.55 1010.28
1016.92 1016.61 1016.33 1016.15 1015.95 1015.72 1015.45 1015.23 1015.05 1014.89 1014.70 1014.37 1013.92 1013.42 1013.10 1012.93 1012.43 1010.83 1009.59 1009.57 1009.65 1009.99 1010.11 1010.13 1010.05 1010.21 1010.06 1009.52 1009.25 1009.64 1010.09 1009.73 1009.76 1009.30 1009.28 1009.30 1009.10 1009.02 1009.08 1009.56 1009.59 1009.40 1009.73 1009.65 1010.13
1016.90 1016.59 1016.34 1016.12 1015.86 1015.63 1015.35 1015.10 1014.94 1014.82 1014.67 1014.36 1013.94 1013.34 1012.91 1012.75 1012.33 1010.25 1009.35 1009.55 1009.60 1009.75 1010.00 1009.83 1009.84 1009.97 1010.02 1009.74 1008.82 1009.22 1009.24 1009.32 1009.30 1009.03 1008.99 1009.13 1009.33 1009.35 1009.43 1009.51 1009.32 1009.23 1009.68 1010.00 1010.35
1016.86 1016.58 1016.33 1016.09 1015.82 1015.53 1015.23 1014.98 1014.79 1014.66 1014.55 1014.29 1013.85 1013.31 1012.61 1012.56 1011.67 1009.65 1009.25 1009.21 1009.25 1009.69 1009.78 1009.76 1010.01 1010.22 1010.28 1009.78 1009.19 1009.31 1009.48 1009.26 1009.00 1008.85 1008.96 1009.03 1009.34 1009.66 1009.54 1009.64 1009.35 1009.47 1009.62 1010.09 1010.48
1016.82 1016.55 1016.27 1016.00 1015.74 1015.48 1015.17 1014.88 1014.64 1014.46 1014.37 1014.18 1013.79 1013.18 1012.89 1011.98 1010.10 1009.43 1009.42 1009.44 1009.17 1009.30 1009.58 1009.62 1010.01 1009.94 1010.13 1009.90 1009.76 1009.65 1009.53 1009.47 1009.39 1009.08 1009.08 1009.27 1009.45 1009.53 1009.27 1009.40 1009.82 1009.54 1009.73 1009.97 1010.47
1016.71 1016.44 1016.16 1015.88 1015.62 1015.37 1015.08 1014.79 1014.52 1014.24 1014.15 1013.99 1013.84 1013.50 1012.98 1011.13 1009.86 1009.56 1009.56 1009.56 1009.19 1009.18 1009.33 1009.32 1009.55 1010.00 1010.25 1010.20 1009.89 1009.95 1010.18 1009.93 1009.71 1009.71 1009.44 1009.54 1010.04 1009.77 1009.15 1009.41 1009.69 1010.11 1010.01 1010.02 1010.07
1016.59 1016.32 1016.06 1015.81 1015.57 1015.29 1014.96 1014.59 1014.28 1014.06 1013.94 1013.81 1013.80 1013.50 1012.36 1010.12 1009.74 1009.55 1009.46 1009.51 1009.30 1009.14 1009.13 1009.08 1009.32 1009.89 1010.46 1010.42 1010.59 1010.89 1011.22 1011.38 1009.96 1009.70 1009.75 1009.93 1010.46 1010.03 1009.14 1009.70 1009.77 1010.09 1010.05 1009.85 1009.87
1016.48 1016.21 1015.98 1015.73 1015.49 1015.22 1014.79 1014.31 1013.82 1013.56 1013.41 1013.52 1013.77 1013.29 1011.88 1010.01 1009.74 1009.46 1009.38 1009.43 1009.34 1009.10 1009.04 1009.15 1009.64 1010.41 1010.64 1011.34 1012.09 1012.30 1012.29 1012.11 1011.12 1010.27 1010.42 1010.77 1011.05 1010.46 1010.29 1010.50 1010.36 1010.27 1010.13 1010.13 1010.05
1016.40 1016.10 1015.90 1015.71 1015.49 1015.16 1014.52 1013.94 1013.38 1013.28 1012.56 1012.95 1013.00 1013.12 1011.46 1010.23 1009.59 1009.40 1009.29 1009.42 1009.62 1009.70 1009.69 1009.76 1010.51 1011.16 1011.74 1012.15 1012.77 1012.77 1012.67 1012.36 1012.03 1011.35 1011.15 1011.52 1011.83 1011.59 1011.20 1010.99 1010.99 1010.84 1010.63 1010.35 1010.40
1016.33 1016.01 1015.75 1015.62 1015.47 1015.20 1014.33 1013.71 1013.88 1013.69 1013.04 1012.60 1012.25 1011.80 1010.63 1009.81 1009.39 1009.44 1009.43 1009.56 1009.93 1010.41 1011.16 1010.68 1011.52 1012.14 1011.89 1012.16 1012.01 1012.25 1012.47 1012.66 1012.36 1012.25 1012.17 1012.79 1012.78 1012.30 1011.55 1011.42 1011.17 1010.67 1010.23 1010.17 1010.74
1016.36 1016.00 1015.69 1015.50 1015.45 1015.29 1015.15 1014.53 1013.19 1013.07 1012.63 1011.65 1011.22 1011.15 1010.56 1009.70 1009.68 1009.63 1009.59 1010.33 1010.91 1011.51 1011.61 1011.77 1011.91 1011.92 1011.50 1011.39 1011.68 1012.23 1012.90 1013.26 1012.99 1012.73 1013.03 1013.02 1012.96 1012.49 1012.00 1012.69 1012.46 1011.04 1010.45 1010.05 1010.39
1016.40 1016.00 1015.69 1015.35 1015.24 1015.27 1014.82 1013.53 1012.05 1012.59 1012.76 1011.20 1010.39 1010.22 1009.90 1009.63 1009.87 1010.01 1010.11 1010.72 1011.37 1012.00 1012.46 1012.75 1012.24 1011.72 1011.85 1011.94 1012.17 1012.68 1013.25 1013.57 1013.98 1013.86 1013.82 1013.83 1013.73 1013.33 1013.59 1014.23 1013.34 1013.04 1012.49 1012.12 1013.05
1016.37 1015.97 1015.54 1015.15 1015.26 1014.95 1014.03 1012.21 1011.84 1012.32 1012.79 1011.35 1009.99 1009.23 1009.40 1009.60 1010.21 1010.12 1010.27 1010.96 1011.74 1012.37 1012.56 1012.74 1012.08 1012.22 1012.17 1012.26 1012.44 1013.08 1013.32 1013.71 1014.28 1014.95 1015.60 1015.26 1015.29 1014.80 1015.15 1015.00 1014.83 1015.09 1014.60 1014.66 1014.81
1016.24 1015.86 1015.44 1015.18 1015.05 1014.51 1012.94 1012.35 1011.82 1012.24 1012.65 1010.57 1009.52 1008.67 1009.16 1009.95 1010.23 1010.38 1010.12 1010.86 1011.78 1012.41 1013.10 1013.40 1012.90 1012.69 1012.86 1013.11 1012.90 1013.67 1013.90 1014.74 1015.27 1015.98 1016.60 1016.58 1016.76 1015.89 1015.86 1016.25 1016.18 1016.06 1016.34 1016.64 1016.35
1015.95 1015.68 1015.46 1015.04 1015.00 1013.50 1012.53 1012.14 1012.36 1013.38 1011.94 1010.53 1009.59 1009.30 1009.80 1009.94 1010.26 1010.44 1010.79 1011.02 1011.65 1012.76 1013.47 1013.92 1013.56 1013.60 1013.92 1013.58 1013.73 1014.11 1014.83 1015.87 1016.70 1017.60 1018.08 1017.78 1017.59 1017.58 1017.24 1017.11 1017.04 1016.58 1016.35 1016.59 1016.84
1015.50 1015.26 1015.21 1014.51 1013.80 1012.73 1012.60 1013.22 1013.74 1013.38 1011.73 1011.30 1010.65 1010.28 1010.34 1010.53 1010.63 1011.05 1011.53 1012.35 1013.00 1014.14 1014.87 1014.60 1014.51 1014.22 1014.13 1014.43 1014.42 1015.13 1016.71 1018.15 1019.22 1019.80 1019.57 1018.41 1018.22 1017.87 1017.37 1017.14 1017.14 1017.07 1017.12 1017.12 1016.92
1015.10 1014.67 1014.15 1013.52 1012.89 1013.15 1013.55 1014.23 1014.09 1013.18 1012.45 1011.89 1011.47 1011.07 1011.24 1010.90 1011.26 1011.75 1012.41 1013.46 1014.04 1014.74 1015.91 1016.26 1015.67 1015.53 1015.65 1015.91 1016.26 1016.58 1017.94 1019.70 1020.57 1020.95 1020.00 1018.93 1018.42 1017.86 1017.76 1017.55 1017.47 1017.57 1017.64 1017.77 1017.78
1014.67 1014.50 1014.25 1012.85 1012.60 1013.38 1014.42 1014.95 1014.51 1013.58 1013.14 1012.73 1012.19 1012.35 1012.57 1012.25 1012.45 1012.68 1013.39 1014.53 1015.36 1015.78 1016.71 1017.33 1017.05 1016.12 1016.23 1016.31 1016.69 1017.35 1018.55 1019.22 1020.32 1020.81 1020.43 1019.33 1018.53 1018.22 1017.86 1017.97 1017.91 1017.84 1017.68 1017.77 1017.72
1015.75 1015.04 1014.06 1012.25 1012.56 1013.86 1015.26 1015.15 1014.31 1013.63 1013.31 1013.26 1013.70 1013.90 1014.19 1014.13 1014.16 1014.27 1014.62 1015.59 1016.35 1016.62 1016.80 1018.17 1018.38 1017.66 1017.00 1016.85 1017.22 1018.14 1018.66 1019.64 1021.03 1021.87 1021.62 1020.63 1019.99 1019.26 1018.80 1018.64 1018.50 1018.44 1018.53 1018.30 1017.93
1016.06 1015.31 1013.00 1012.43 1012.97 1014.59 1015.68 1015.00 1014.40 1013.77 1013.48 1013.83 1014.27 1014.71 1015.28 1015.49 1015.49 1015.70 1016.02 1016.26 1016.33 1017.03 1017.36 1018.42 1019.37 1019.31 1018.63 1018.51 1018.84 1018.90 1019.48 1020.54 1021.72 1022.63 1022.78 1021.87 1021.09 1020.24 1020.09 1019.82 1019.60 1019.17 1018.86 1018.82 1018.55
1017.13 1015.99 1012.95 1012.76 1014.31 1015.30 1015.46 1014.62 1014.31 1014.24 1014.01 1014.34 1014.58 1015.26 1015.85 1016.07 1016.40 1016.39 1016.46 1016.31 1016.57 1017.11 1018.15 1018.97 1020.23 1020.95 1020.46 1019.30 1019.38 1019.60 1020.10 1020.95 1022.06 1022.55 1022.90 1022.32 1020.82 1020.45 1020.25 1020.30 1020.17 1020.17 1019.73 1019.18 1018.62
1018.89 1016.80 1013.82 1013.68 1015.56 1016.20 1015.42 1014.88 1014.57 1014.58 1014.81 1014.99 1015.42 1015.70 1016.03 1016.63 1017.09 1017.04 1016.95 1016.94 1017.01 1017.63 1018.35 1019.38 1021.21 1021.97 1021.35 1020.53 1019.73 1020.01 1020.12 1020.55 1021.32 1022.38 1023.08 1022.89 1021.28 1020.46 1020.23 1020.02 1020.18 1020.36 1019.79 1019.39 1018.80
1019.31 1018.20 1016.61 1016.20 1016.61 1016.53 1016.11 1015.56 1015.24 1014.91 1015.17 1015.41 1015.80 1016.03 1016.71 1017.41 1017.80 1017.93 1017.96 1017.87 1017.81 1018.03 1018.70 1019.64 1021.53 1022.42 1022.52 1021.75 1021.02 1020.74 1020.56 1020.53 1021.07 1022.38 1022.96 1022.81 1021.68 1021.08 1021.07 1020.91 1020.53 1020.03 1019.49 1019.07 1018.56
1019.87 1019.92 1019.34 1019.05 1017.80 1017.17 1016.62 1015.93 1015.52 1015.49 1015.62 1015.92 1016.72 1017.32 1017.70 1018.32 1018.57 1018.81 1018.86 1018.65 1018.66 1018.94 1019.54 1020.64 1021.90 1022.25 1022.01 1021.61 1021.10 1020.80 1020.68 1020.93 1021.35 1021.91 1022.47 1022.23 1022.09 1021.56 1021.53 1021.19 1020.44 1019.79 1019.36 1018.79 1018.03
1021.06 1021.02 1020.26 1019.60 1018.51 1017.57 1017.06 1016.37 1016.06 1016.18 1016.20 1016.67 1017.22 1017.71 1018.16 1018.88 1019.40 1019.81 1019.81 1019.72 1019.61 1019.76 1020.31 1021.22 1021.87 1022.20 1022.22 1021.51 1021.16 1020.92 1021.09 1021.24 1021.47 1021.79 1022.08 1022.14 1021.71 1021.38 1021.15 1020.74 1020.33 1019.75 1019.08 1018.22 1017.63
1021.65 1021.29 1021.10 1020.28 1019.20 1018.38 1017.51 1016.63 1016.48 1016.39 1016.87 1016.91 1017.42 1017.91 1018.46 1018.99 1019.27 1019.38 1019.47 1019.64 1019.67 1020.09 1020.87 1021.67 1022.28 1022.81 1022.62 1021.98 1021.61 1021.47 1021.37 1021.44 1021.73 1021.93 1022.13 1021.93 1021.57 1021.41 1020.75 1020.49 1020.04 1019.29 1018.71 1018.03 1017.40
Wind_Speed
10 10 9 9 9 9 9 9 9 9 9 10 11 12 11 12 14 2 3 9 4 2 3 7 4 5 2 3 5 5 6 2 4 4 4 6 4 1 2 5 3 2 6 6 13
10 9 9 9 9 9 9 10 10 10 10 10 11 12 11 12 4 4 10 6 6 3 5 5 8 9 4 4 2 5 4 3 1 3 2 2 4 3 4 4 4 5 3 7 13
9 9 9 9 9 9 9 10 10 10 10 11 12 13 11 6 4 6 6 8 6 5 1 2 3 2 2 2 3 4 5 3 2 4 4 4 7 3 3 3 6 10 4 3 7
10 9 9 9 9 9 10 10 10 10 9 10 12 13 12 1 2 6 9 8 8 4 3 4 4 6 4 5 3 5 0 5 5 3 3 1 1 5 4 3 10 10 8 5 5
10 9 9 8 8 9 10 11 11 10 10 10 12 12 4 4 6 9 10 8 4 4 2 4 7 5 5 5 4 4 3 5 4 5 2 2 2 3 2 5 8 8 6 8 6
9 9 9 8 9 9 11 11 12 12 10 10 11 14 2 2 6 8 7 8 5 5 6 6 3 5 2 4 3 1 2 5 4 2 0 1 2 3 6 4 5 9 9 7 8
9 9 9 9 9 10 11 11 11 12 9 9 8 3 2 10 3 5 3 3 3 2 4 5 3 7 5 8 5 4 8 7 5 2 4 5 6 5 8 2 7 8 8 9 8
9 9 9 9 10 11 12 13 12 11 9 5 2 1 5 6 6 4 2 4 5 6 3 5 3 3 2 3 8 5 6 5 11 5 5 6 9 10 13 3 5 9 9 9 8
9 9 9 10 10 11 13 14 13 10 9 7 0 2 9 10 1 6 0 2 5 6 5 3 2 2 6 4 6 7 1 2 9 2 2 3 8 9 12 8 3 7 7 8 8
10 8 8 8 9 11 15 8 7 10 5 3 1 4 5 5 3 0 2 4 4 6 8 6 5 3 5 5 4 3 3 3 3 4 0 3 8 9 8 5 8 8 9 9 10
12 9 7 7 7 10 9 5 7 5 2 6 4 4 3 2 2 1 3 5 6 6 4 6 5 4 5 5 4 3 1 3 4 6 6 1 7 8 9 6 9 11 10 9 7
13 10 7 5 5 6 1 0 6 4 7 8 12 6 8 4 2 4 2 5 6 6 6 9 1 4 8 2 4 7 5 4 4 6 5 8 7 6 7 13 21 17 16 8 8
13 11 9 6 3 2 2 7 6 4 1 8 7 5 6 3 1 3 4 2 3 6 6 2 6 10 7 5 7 3 5 2 3 5 5 6 6 9 10 16 22 25 23 21 13
13 11 10 13 2 3 5 8 6 4 5 7 1 6 4 4 4 3 2 4 5 3 5 3 7 11 8 0 3 3 4 2 6 7 2 3 7 7 6 16 19 16 18 20 20
15 12 12 3 2 1 6 7 2 7 3 2 2 4 4 7 7 3 2 3 4 4 5 7 7 10 8 4 2 1 5 3 2 3 4 7 4 5 7 11 9 7 10 10 10
17 11 11 3 1 8 9 4 7 6 4 2 4 5 4 4 4 5 2 1 1 3 3 4 3 9 4 5 5 4 8 8 6 3 4 2 3 6 3 4 2 4 7 8 7
19 11 4 2 4 5 6 6 6 3 6 3 1 3 4 4 4 6 4 6 2 5 5 5 3 1 10 8 9 10 8 6 6 6 5 4 4 6 5 4 3 5 6 5 5
21 9 5 4 6 6 5 7 5 3 4 1 4 5 1 4 3 3 3 3 8 6 4 3 8 4 7 2 3 2 7 6 4 4 9 5 4 6 2 6 4 5 4 4 3
16 3 4 6 4 4 7 5 3 3 4 6 7 6 7 8 5 5 5 4 5 4 5 2 5 8 7 4 2 7 5 5 3 3 2 4 3 4 10 8 7 5 7 7 6
3 3 4 4 4 6 6 3 2 3 2 5 5 5 5 7 6 6 4 5 4 4 5 0 3 4 7 7 5 3 4 7 5 5 6 4 2 5 10 8 10 9 5 5 7
4 4 6 4 6 6 3 3 4 3 4 4 2 3 4 3 4 5 4 4 3 2 6 2 5 7 5 3 3 8 7 4 3 3 1 4 5 5 5 5 8 8 5 7 7
3 3 5 4 5 1 1 3 0 3 7 6 5 5 4 3 4 5 4 3 3 2 2 0 5 1 6 9 3 3 2 3 3 6 5 3 6 6 9 7 11 9 9 9 8
2 3 4 7 3 3 5 3 3 2 3 4 3 3 1 3 3 4 6 4 3 2 5 3 3 4 9 8 7 6 9 8 3 4 4 3 7 6 6 6 6 8 9 7 8
3 4 6 6 0 4 3 2 2 2 3 3 2 3 5 4 3 3 5 4 5 2 8 8 3 7 7 9 5 6 10 9 4 3 4 7 7 8 8 10 9 9 9 9 10
4 1 3 3 5 3 1 2 2 3 3 6 5 6 3 3 6 3 5 6 5 3 4 5 4 5 6 7 7 10 10 6 3 1 3 6 7 6 6 9 10 8 10 12 16
3 4 5 3 4 3 2 3 5 2 3 2 4 2 4 3 2 3 1 2 5 1 2 3 3 2 4 6 8 12 5 2 2 3 5 6 12 3 7 8 9 14 16 19 17
3 3 4 5 5 3 4 1 3 4 4 6 4 3 3 3 5 9 9 7 7 3 2 1 2 3 5 5 7 5 1 2 3 5 6 7 7 4 15 14 14 15 16 17 11
Wind_Direction
357 351 347 348 346 340 336 334 340 340 338 335 329 321 321 322 307 127 270 220 218 180 310 306 318 342 153 247 204 110 63 298 297 32 348 343 113 325 123 110 72 107 137 108 87
357 351 350 349 343 338 333 334 337 338 340 336 323 318 322 333 350 310 247 251 252 258 1 1 327 3 338 276 321 93 103 242 149 119 68 340 48 22 33 57 83 97 28 99 93
354 353 352 347 341 337 332 332 334 336 337 331 324 316 322 321 1 282 270 255 257 161 234 274 258 185 277 229 230 160 174 193 324 117 83 11 15 294 117 35 203 146 145 54 91
351 352 350 345 341 335 330 329 329 330 331 326 320 313 320 137 119 261 266 249 276 277 307 315 359 4 346 327 209 83 329 138 199 107 83 47 323 352 57 237 161 139 142 116 130
347 347 345 341 337 332 330 328 327 327 330 330 325 327 27 13 249 263 283 308 312 122 17 346 44 5 360 305 3 72 10 347 164 149 146 125 319 198 258 194 155 146 144 143 157
341 340 339 336 334 331 328 326 324 323 328 331 332 321 22 353 246 244 264 305 352 25 12 44 347 260 306 338 49 315 37 319 287 237 355 304 269 52 269 130 217 157 172 178 165
337 336 333 331 330 328 324 320 318 315 321 324 331 340 1 233 250 279 323 276 286 346 350 325 18 48 345 342 344 13 356 343 301 274 200 138 328 274 259 317 237 204 180 174 187
338 332 329 329 328 326 323 314 304 299 301 284 31 345 254 256 267 349 322 334 312 292 270 253 21 10 145 298 6 21 55 347 284 173 262 106 255 269 277 309 257 197 200 199 203
340 331 328 330 331 328 315 302 295 302 271 227 150 69 286 310 296 260 146 321 311 312 307 259 73 206 347 73 10 10 247 284 319 80 77 126 250 288 319 336 282 226 229 235 232
346 335 329 330 335 330 309 273 306 331 342 156 263 15 282 240 212 272 292 295 276 314 341 30 61 23 18 83 203 241 308 301 286 300 288 339 308 325 305 320 285 270 264 252 223
356 345 343 340 344 343 354 2 18 358 58 204 207 230 337 266 147 278 269 352 359 47 14 312 71 270 250 220 164 173 215 293 289 356 25 178 231 270 304 331 314 289 266 250 187
357 350 352 344 339 336 52 83 212 190 310 237 249 263 258 213 355 287 70 57 42 339 358 11 343 338 294 69 49 33 54 354 312 350 49 329 316 305 326 356 347 319 302 193 162
351 347 340 335 333 346 203 235 287 47 42 293 212 196 221 114 188 17 85 61 22 2 351 177 258 341 16 4 62 53 82 340 244 327 342 356 342 357 23 40 36 34 39 36 29
349 341 335 319 54 316 262 283 274 160 58 278 162 255 142 151 19 145 142 116 8 320 328 308 318 341 340 314 109 27 295 330 341 40 322 20 286 332 32 34 38 32 34 39 37
345 341 331 265 259 314 251 336 313 56 21 203 204 196 165 146 153 260 163 97 190 236 70 275 308 324 3 3 7 272 29 0 299 339 54 340 68 270 1 21 8 25 66 63 61
339 339 333 80 52 241 303 327 51 49 268 252 140 181 138 241 193 150 189 59 173 80 18 20 335 50 3 338 30 321 18 29 24 61 48 216 106 322 3 279 300 22 43 56 90
331 325 307 328 248 325 330 44 51 111 306 26 288 184 223 249 179 176 169 16 111 69 355 347 357 315 25 7 359 43 44 341 359 359 232 306 41 235 233 237 76 52 55 33 17
325 320 218 221 259 360 44 52 67 319 358 353 345 355 345 311 108 144 147 98 18 70 66 51 331 29 356 359 296 355 125 149 283 242 280 293 224 189 330 65 58 63 59 60 39
322 355 324 267 236 85 69 65 206 28 347 357 350 30 352 1 57 49 55 57 38 40 121 66 280 329 4 343 80 321 10 215 223 237 332 212 5 219 49 35 23 44 42 2 357
17 6 273 252 112 65 72 238 85 64 4 39 51 43 31 1 45 28 42 348 93 52 93 199 331 285 321 4 29 104 275 9 3 334 306 341 339 263 360 350 350 343 342 347 340
47 36 259 101 65 52 132 231 107 62 66 85 58 12 64 23 35 7 42 345 100 108 82 78 114 293 10 18 27 339 8 7 132 153 232 288 259 16 24 300 331 327 333 345 335
21 36 282 67 51 57 158 158 77 50 28 31 63 67 86 43 43 26 37 174 70 78 91 172 129 296 266 295 219 238 261 148 136 283 239 202 257 61 40 18 15 354 353 335 331
31 266 339 81 102 341 311 52 65 61 47 43 66 77 111 35 23 2 17 65 144 146 167 186 10 2 348 350 356 356 336 325 241 90 228 166 263 29 5 20 347 316 311 309 311
52 14 332 38 36 113 17 16 117 45 79 79 16 37 65 39 59 325 24 49 348 31 97 84 124 151 204 230 255 296 314 309 133 139 233 238 288 297 340 329 299 303 305 303 293
29 317 180 310 329 345 15 283 66 115 40 26 68 71 56 43 354 36 0 349 10 105 68 97 193 199 241 258 281 300 311 37 22 194 227 268 254 276 290 279 276 279 286 293 306
63 31 347 286 310 306 49 334 130 82 98 19 93 104 80 106 144 265 21 245 244 343 83 31 269 226 274 273 284 295 62 347 18 343 279 291 307 230 287 288 303 308 306 305 307
319 342 102 290 333 22 233 144 147 121 64 102 121 83 27 201 218 223 210 209 204 208 118 233 159 51 259 289 315 335 228 71 296 287 276 291 288 293 321 317 307 303 299 302 297